Regional Weather Roundup
Issued by NWS

Home | Current Version | Previous Version | Graphics & Text | Print | Product List | Glossary On
Versions: 1 2 3 4 5 6 7 8 9 10 11 12 13 14 15 16 17 18 19 20 21 22 23 24 25 26 27 28 29 30 31 32 33 34 35 36 37 38 39 40 41 42 43 44 45 46 47 48 49 50
000
ASUS43 KFSD 130202
RWRSD

WEATHER ROUNDUP FOR SOUTH DAKOTA
NATIONAL WEATHER SERVICE SIOUX FALLS SD
800 PM CST FRI FEB 12 2016

NOTE: "FAIR" INDICATES FEW OR NO CLOUDS BELOW 12,000 FEET WITH NO
SIGNIFICANT WEATHER AND/OR OBSTRUCTIONS TO VISIBILITY.


SDZ001>005-009-010-012>017-130300-
NORTHWEST AND NORTH CENTRAL SOUTH DAKOTA

CITY           SKY/WX    TMP DP  RH WIND       PRES   REMARKS
BUFFALO          N/A     21  16  81 SE22      30.23F WCI   5
FAITH            N/A     17   8  67 SE18      30.40F WCI   1
MOBRIDGE       CLOUDY     9   2  73 E12       30.52F WCI  -6
$$

SDZ012>016-024>037-041>051-057-063-072>074-130300-
SOUTHWEST AND SOUTH CENTRAL SOUTH DAKOTA

CITY           SKY/WX    TMP DP  RH WIND       PRES   REMARKS
RAPID CTY ARPT CLOUDY    22  20  92 SE14      30.33F WCI   9
PIERRE         CLOUDY    13   6  74 E14       30.54F WCI  -2
CUSTER         FOG       25  23  92 SW10G25   30.23R VSB 3/4 WCI  15
ELLSWORTH AFB  CLOUDY    23  21  93 SE13      30.31  WCI  11
PHILIP         FLURRIES  22  18  85 E10       30.44F WCI  11
PINE RIDGE     CLOUDY    29  24  82 E10       30.32F WCI  20
WINNER         CLOUDY    19   9  65 E13       30.53S WCI   6
$$

SDZ004>011-016>023-039-040-130300-
NORTHEAST SOUTH DAKOTA

CITY           SKY/WX    TMP DP  RH WIND       PRES   REMARKS
ABERDEEN       CLOUDY     2  -8  63 NE5       30.64F WCI  -8
WATERTOWN      CLOUDY    -2 -11  65 NW7       30.57S WCI -15
BROOKINGS      CLOUDY     0  -8  69 N9        30.58R WCI -15
SISSETON         N/A     -6 -11  79 N8        30.65R WCI -21
$$

SDZ017-020-022-023-036>040-048>070-130300-
SOUTHEAST SOUTH DAKOTA

CITY           SKY/WX    TMP DP  RH WIND       PRES   REMARKS
SIOUX FALLS    CLOUDY     4  -5  66 N3        30.60R
HURON          CLOUDY     5  -4  66 N9        30.64S WCI  -9
CHAMBERLAIN    CLOUDY    13   6  74 E8        30.59F WCI   1
MITCHELL       CLOUDY     9   0  67 N8        30.65R WCI  -3
YANKTON        PTCLDY    10   1  67 N3        30.63R
$$

ABBREVIATIONS USED IN REMARKS
   TC - TEMPERATURE IN CELSIUS
  WCI - WIND CHILL INDEX
   HX - HEAT INDEX
  VSB - VISIBILITY




USA.gov is the U.S. government's official web portal to all federal, state and local government web resources and services.